• în România
  • Lista ţărilor
  • Pe 7 zile
  • Temperatura apei
  • Hartă satelitară
  • Meteo pe hartă
  • Widget-uri
  • user-avatar
    Intrare

    Meteo pe oră la Buzău

    Astăzi, 20 August, Luni

    Timp Temperatura Precipitaţii Vânt Presiune Umiditate
    00:00 +24°C° 0 mm 2 m/s 755 mmHg 67%
    01:00 +23°C° 0 mm 2 m/s 755 mmHg 69%
    02:00 +23°C° 0 mm 2 m/s 755 mmHg 71%
    03:00 +23°C° 0,1 mm 2 m/s 755 mmHg 72%
    04:00 +21°C° 0,1 mm 2 m/s 755 mmHg 73%
    05:00 +21°C° 0,1 mm 2 m/s 754 mmHg 74%
    06:00 +24°C° 0,1 mm 3 m/s 755 mmHg 69%
    07:00 +25°C° 0,1 mm 3 m/s 755 mmHg 63%
    08:00 +27°C° 0,1 mm 3 m/s 755 mmHg 57%
    09:00 +29°C° 0,3 mm 3 m/s 755 mmHg 52%
    10:00 +30°C° 0,3 mm 3 m/s 755 mmHg 47%
    11:00 +33°C° 0,3 mm 3 m/s 754 mmHg 42%
    12:00 +33°C° 0,5 mm 3 m/s 754 mmHg 40%
    13:00 +34°C° 0,5 mm 2 m/s 754 mmHg 38%
    14:00 +35°C° 0,5 mm 2 m/s 753 mmHg 35%
    15:00 +34°C° 0,4 mm 2 m/s 753 mmHg 36%
    16:00 +34°C° 0,4 mm 2 m/s 753 mmHg 37%
    17:00 +34°C° 0,4 mm 2 m/s 753 mmHg 37%
    18:00 +31°C° 0,2 mm 2 m/s 753 mmHg 41%
    19:00 +29°C° 0,2 mm 2 m/s 753 mmHg 44%
    20:00 +27°C° 0,2 mm 3 m/s 753 mmHg 47%
    21:00 +26°C° 0,1 mm 2 m/s 753 mmHg 51%
    22:00 +25°C° 0,1 mm 2 m/s 753 mmHg 54%
    23:00 +23°C° 0,1 mm 1 m/s 753 mmHg 57%

    Mâine, 21 August, Marţi

    Timp Temperatura Precipitaţii Vânt Presiune Umiditate
    00:00 +23°C° 0 mm 1 m/s 753 mmHg 58%
    01:00 +22°C° 0 mm 1 m/s 753 mmHg 59%
    02:00 +22°C° 0 mm 1 m/s 753 mmHg 60%
    03:00 +22°C° 0 mm 1 m/s 753 mmHg 61%
    04:00 +21°C° 0 mm 1 m/s 754 mmHg 61%
    05:00 +21°C° 0 mm 1 m/s 754 mmHg 62%
    06:00 +23°C° 0 mm 1 m/s 754 mmHg 56%
    07:00 +23°C° 0 mm 0 m/s 754 mmHg 51%
    08:00 +25°C° 0 mm 0 m/s 754 mmHg 46%
    09:00 +27°C° 0 mm 0 m/s 754 mmHg 41%
    10:00 +31°C° 0 mm 1 m/s 754 mmHg 37%
    11:00 +33°C° 0 mm 1 m/s 754 mmHg 32%
    12:00 +34°C° 0,2 mm 1 m/s 754 mmHg 32%
    13:00 +34°C° 0,2 mm 1 m/s 753 mmHg 31%
    14:00 +35°C° 0,2 mm 1 m/s 753 mmHg 31%
    15:00 +34°C° 0,1 mm 1 m/s 753 mmHg 32%
    16:00 +34°C° 0,1 mm 1 m/s 753 mmHg 33%
    17:00 +33°C° 0,1 mm 1 m/s 752 mmHg 34%
    18:00 +32°C° 0,1 mm 2 m/s 753 mmHg 38%
    19:00 +30°C° 0,1 mm 2 m/s 753 mmHg 41%
    20:00 +28°C° 0,1 mm 2 m/s 753 mmHg 45%
    21:00 +27°C° 0 mm 2 m/s 754 mmHg 47%
    22:00 +26°C° 0 mm 2 m/s 754 mmHg 48%
    23:00 +25°C° 0 mm 2 m/s 754 mmHg 50%

    Poimâine, 22 August, Miercuri

    Timp Temperatura Precipitaţii Vânt Presiune Umiditate
    00:00 +25°C° 0 mm 2 m/s 754 mmHg 54%
    01:00 +25°C° 0 mm 2 m/s 754 mmHg 57%
    02:00 +24°C° 0 mm 2 m/s 755 mmHg 60%
    03:00 +24°C° 0 mm 3 m/s 755 mmHg 65%
    04:00 +24°C° 0 mm 3 m/s 755 mmHg 70%
    05:00 +22°C° 0 mm 4 m/s 755 mmHg 74%
    06:00 +25°C° 0 mm 4 m/s 755 mmHg 70%
    07:00 +26°C° 0 mm 5 m/s 755 mmHg 66%
    08:00 +27°C° 0 mm 6 m/s 755 mmHg 62%
    09:00 +29°C° 0,3 mm 6 m/s 755 mmHg 57%
    10:00 +30°C° 0,3 mm 6 m/s 755 mmHg 52%
    11:00 +33°C° 0,3 mm 6 m/s 756 mmHg 47%
    12:00 +33°C° 0,4 mm 5 m/s 755 mmHg 45%
    13:00 +34°C° 0,4 mm 5 m/s 755 mmHg 43%
    14:00 +34°C° 0,4 mm 4 m/s 755 mmHg 41%
    15:00 +34°C° 0,5 mm 4 m/s 755 mmHg 42%
    16:00 +33°C° 0,5 mm 4 m/s 754 mmHg 43%
    17:00 +33°C° 0,5 mm 4 m/s 754 mmHg 44%
    18:00 +30°C° 0,3 mm 4 m/s 755 mmHg 48%
    19:00 +29°C° 0,3 mm 4 m/s 755 mmHg 51%
    20:00 +27°C° 0,3 mm 3 m/s 755 mmHg 54%
    21:00 +26°C° 0,2 mm 4 m/s 755 mmHg 56%
    22:00 +25°C° 0,2 mm 4 m/s 755 mmHg 58%
    23:00 +23°C° 0,2 mm 4 m/s 756 mmHg 60%

    23 August, Joi

    Timp Temperatura Precipitaţii Vânt Presiune Umiditate
    00:00 +23°C° 0,1 mm 4 m/s 756 mmHg 60%
    01:00 +22°C° 0,1 mm 4 m/s 756 mmHg 59%
    02:00 +22°C° 0,1 mm 4 m/s 755 mmHg 59%
    03:00 +21°C° 0 mm 4 m/s 755 mmHg 60%
    04:00 +21°C° 0 mm 4 m/s 755 mmHg 61%
    05:00 +20°C° 0 mm 4 m/s 755 mmHg 62%
    06:00 +22°C° 0 mm 4 m/s 755 mmHg 58%
    07:00 +23°C° 0 mm 4 m/s 756 mmHg 54%
    08:00 +25°C° 0 mm 4 m/s 756 mmHg 51%
    09:00 +27°C° 0 mm 4 m/s 755 mmHg 45%
    10:00 +29°C° 0 mm 4 m/s 755 mmHg 40%
    11:00 +30°C° 0 mm 4 m/s 755 mmHg 35%
    12:00 +32°C° 0 mm 4 m/s 755 mmHg 33%
    13:00 +33°C° 0 mm 4 m/s 754 mmHg 31%
    14:00 +34°C° 0 mm 4 m/s 754 mmHg 28%
    15:00 +33°C° 0 mm 4 m/s 753 mmHg 28%
    16:00 +33°C° 0 mm 4 m/s 753 mmHg 28%
    17:00 +33°C° 0 mm 4 m/s 753 mmHg 28%
    18:00 +30°C° 0 mm 3 m/s 753 mmHg 32%
    19:00 +27°C° 0 mm 3 m/s 753 mmHg 37%
    20:00 +25°C° 0 mm 3 m/s 753 mmHg 41%
    21:00 +24°C° 0 mm 2 m/s 753 mmHg 45%
    22:00 +23°C° 0 mm 2 m/s 754 mmHg 50%
    23:00 +22°C° 0 mm 1 m/s 754 mmHg 54%

    24 August, Vineri

    Timp Temperatura Precipitaţii Vânt Presiune Umiditate
    00:00 +21°C° 0 mm 2 m/s 753 mmHg 54%
    01:00 +20°C° 0 mm 2 m/s 753 mmHg 55%
    02:00 +20°C° 0 mm 2 m/s 753 mmHg 55%
    03:00 +19°C° 0 mm 2 m/s 753 mmHg 55%
    04:00 +19°C° 0 mm 2 m/s 753 mmHg 55%
    05:00 +19°C° 0 mm 2 m/s 753 mmHg 55%
    06:00 +21°C° 0 mm 2 m/s 753 mmHg 50%
    07:00 +24°C° 0 mm 2 m/s 753 mmHg 46%
    08:00 +26°C° 0 mm 2 m/s 753 mmHg 41%
    09:00 +28°C° 0 mm 2 m/s 753 mmHg 38%
    10:00 +29°C° 0 mm 2 m/s 752 mmHg 35%
    11:00 +31°C° 0 mm 2 m/s 752 mmHg 31%
    12:00 +32°C° 0 mm 2 m/s 752 mmHg 29%
    13:00 +34°C° 0 mm 2 m/s 751 mmHg 27%
    14:00 +34°C° 0 mm 1 m/s 751 mmHg 25%
    15:00 +34°C° 0 mm 1 m/s 750 mmHg 26%
    16:00 +33°C° 0 mm 1 m/s 750 mmHg 26%
    17:00 +33°C° 0 mm 1 m/s 750 mmHg 27%
    18:00 +31°C° 0 mm 1 m/s 750 mmHg 31%
    19:00 +29°C° 0 mm 2 m/s 750 mmHg 35%
    20:00 +27°C° 0 mm 2 m/s 750 mmHg 39%
    21:00 +26°C° 0 mm 2 m/s 750 mmHg 43%
    22:00 +25°C° 0 mm 2 m/s 750 mmHg 48%
    23:00 +24°C° 0 mm 1 m/s 750 mmHg 52%

    25 August, Sâmbătă

    Timp Temperatura Precipitaţii Vânt Presiune Umiditate
    00:00 +23°C° 0 mm 1 m/s 750 mmHg 54%
    01:00 +23°C° 0 mm 1 m/s 750 mmHg 56%
    02:00 +22°C° 0 mm 1 m/s 750 mmHg 58%
    03:00 +22°C° 0 mm 1 m/s 750 mmHg 59%
    04:00 +22°C° 0 mm 1 m/s 750 mmHg 61%
    05:00 +22°C° 0 mm 1 m/s 750 mmHg 62%
    06:00 +24°C° 0 mm 1 m/s 750 mmHg 57%
    07:00 +26°C° 0 mm 1 m/s 750 mmHg 53%
    08:00 +27°C° 0 mm 1 m/s 750 mmHg 48%
    09:00 +29°C° 0 mm 1 m/s 750 mmHg 43%
    10:00 +31°C° 0 mm 2 m/s 750 mmHg 38%
    11:00 +34°C° 0 mm 2 m/s 749 mmHg 33%
    12:00 +35°C° 0 mm 2 m/s 749 mmHg 31%
    13:00 +35°C° 0 mm 1 m/s 749 mmHg 28%
    14:00 +36°C° 0 mm 1 m/s 748 mmHg 25%
    15:00 +35°C° 0 mm 1 m/s 748 mmHg 25%
    16:00 +35°C° 0 mm 1 m/s 748 mmHg 25%
    17:00 +35°C° 0 mm 1 m/s 747 mmHg 25%
    18:00 +33°C° 0 mm 1 m/s 748 mmHg 29%
    19:00 +31°C° 0 mm 1 m/s 748 mmHg 33%
    20:00 +28°C° 0 mm 2 m/s 748 mmHg 36%
    21:00 +27°C° 0 mm 2 m/s 748 mmHg 39%
    22:00 +26°C° 0 mm 2 m/s 748 mmHg 42%
    23:00 +25°C° 0 mm 2 m/s 748 mmHg 46%
    Arată mai mult